Year,Month,Day,Hour,Minute,Value (Times are PST for insolation in W/m^2)
2008,12,20,00,00,0.00
2008,12,20,00,01,0.00
2008,12,20,00,02,0.00
2008,12,20,00,03,0.00
2008,12,20,00,04,0.00
2008,12,20,00,05,0.00
2008,12,20,00,06,0.00
2008,12,20,00,07,0.00
2008,12,20,00,08,0.00
2008,12,20,00,09,0.00
2008,12,20,00,10,0.00
2008,12,20,00,11,0.00
2008,12,20,00,12,0.00
2008,12,20,00,13,0.00
2008,12,20,00,14,0.00
2008,12,20,00,15,0.00
2008,12,20,00,16,0.00
2008,12,20,00,17,0.00
2008,12,20,00,18,0.00
2008,12,20,00,19,0.00
2008,12,20,00,20,0.00
2008,12,20,00,21,0.00
2008,12,20,00,22,0.00
2008,12,20,00,23,0.00
2008,12,20,00,24,0.00
2008,12,20,00,25,0.00
2008,12,20,00,26,0.00
2008,12,20,00,27,0.00
2008,12,20,00,28,0.00
2008,12,20,00,29,0.00
2008,12,20,00,30,0.00
2008,12,20,00,31,0.00
2008,12,20,00,32,0.00
2008,12,20,00,33,0.00
2008,12,20,00,34,0.00
2008,12,20,00,35,0.00
2008,12,20,00,36,0.00
2008,12,20,00,37,0.00
2008,12,20,00,38,0.00
2008,12,20,00,39,0.00
2008,12,20,00,40,0.00
2008,12,20,00,41,0.00
2008,12,20,00,42,0.00
2008,12,20,00,43,0.00
2008,12,20,00,44,0.00
2008,12,20,00,45,0.00
2008,12,20,00,46,0.00
2008,12,20,00,47,0.00
2008,12,20,00,48,0.00
2008,12,20,00,49,0.00
2008,12,20,00,50,0.00
2008,12,20,00,51,0.00
2008,12,20,00,52,0.00
2008,12,20,00,53,0.00
2008,12,20,00,54,0.00
2008,12,20,00,55,0.00
2008,12,20,00,56,0.00
2008,12,20,00,57,0.00
2008,12,20,00,58,0.00
2008,12,20,00,59,0.00
2008,12,20,01,00,0.00
2008,12,20,01,01,0.00
2008,12,20,01,02,0.00
2008,12,20,01,03,0.00
2008,12,20,01,04,0.00
2008,12,20,01,05,0.00
2008,12,20,01,06,0.00
2008,12,20,01,07,0.00
2008,12,20,01,08,0.00
2008,12,20,01,09,0.00
2008,12,20,01,10,0.00
2008,12,20,01,11,0.00
2008,12,20,01,12,0.00
2008,12,20,01,13,0.00
2008,12,20,01,14,0.00
2008,12,20,01,15,0.00
2008,12,20,01,16,0.00
2008,12,20,01,17,0.00
2008,12,20,01,18,0.00
2008,12,20,01,19,0.00
2008,12,20,01,20,0.00
2008,12,20,01,21,0.00
2008,12,20,01,22,0.00
2008,12,20,01,23,0.00
2008,12,20,01,24,0.00
2008,12,20,01,25,0.00
2008,12,20,01,26,0.00
2008,12,20,01,27,0.00
2008,12,20,01,28,0.00
2008,12,20,01,29,0.00
2008,12,20,01,30,0.00
2008,12,20,01,31,0.00
2008,12,20,01,32,0.00
2008,12,20,01,33,0.00
2008,12,20,01,34,0.00
2008,12,20,01,35,0.00
2008,12,20,01,36,0.00
2008,12,20,01,37,0.00
2008,12,20,01,38,0.00
2008,12,20,01,39,0.00
2008,12,20,01,40,0.00
2008,12,20,01,41,0.00
2008,12,20,01,42,0.00
2008,12,20,01,43,0.00
2008,12,20,01,44,0.00
2008,12,20,01,45,0.00
2008,12,20,01,46,0.00
2008,12,20,01,47,0.00
2008,12,20,01,48,0.00
2008,12,20,01,49,0.00
2008,12,20,01,50,0.00
2008,12,20,01,51,0.00
2008,12,20,01,52,0.00
2008,12,20,01,53,0.00
2008,12,20,01,54,0.00
2008,12,20,01,55,0.00
2008,12,20,01,56,0.00
2008,12,20,01,57,0.00
2008,12,20,01,58,0.00
2008,12,20,01,59,0.00
2008,12,20,02,00,0.00
2008,12,20,02,01,0.00
2008,12,20,02,02,0.00
2008,12,20,02,03,0.00
2008,12,20,02,04,0.00
2008,12,20,02,05,0.00
2008,12,20,02,06,0.00
2008,12,20,02,07,0.00
2008,12,20,02,08,0.00
2008,12,20,02,09,0.00
2008,12,20,02,10,0.00
2008,12,20,02,11,0.00
2008,12,20,02,12,0.00
2008,12,20,02,13,0.00
2008,12,20,02,14,0.00
2008,12,20,02,15,0.00
2008,12,20,02,16,0.00
2008,12,20,02,17,0.00
2008,12,20,02,18,0.00
2008,12,20,02,19,0.00
2008,12,20,02,20,0.00
2008,12,20,02,21,0.00
2008,12,20,02,22,0.00
2008,12,20,02,23,0.00
2008,12,20,02,24,0.00
2008,12,20,02,25,0.00
2008,12,20,02,26,0.00
2008,12,20,02,27,0.00
2008,12,20,02,28,0.00
2008,12,20,02,29,0.00
2008,12,20,02,30,0.00
2008,12,20,02,31,0.00
2008,12,20,02,32,0.00
2008,12,20,02,33,0.00
2008,12,20,02,34,0.00
2008,12,20,02,35,0.00
2008,12,20,02,36,0.00
2008,12,20,02,37,0.00
2008,12,20,02,38,0.00
2008,12,20,02,39,0.00
2008,12,20,02,40,0.00
2008,12,20,02,41,0.00
2008,12,20,02,42,0.00
2008,12,20,02,43,0.00
2008,12,20,02,44,0.00
2008,12,20,02,45,0.00
2008,12,20,02,46,0.00
2008,12,20,02,47,0.00
2008,12,20,02,48,0.00
2008,12,20,02,49,0.00
2008,12,20,02,50,0.00
2008,12,20,02,51,0.00
2008,12,20,02,52,0.00
2008,12,20,02,53,0.00
2008,12,20,02,54,0.00
2008,12,20,02,55,0.00
2008,12,20,02,56,0.00
2008,12,20,02,57,0.00
2008,12,20,02,58,0.00
2008,12,20,02,59,0.00
2008,12,20,03,00,0.00
2008,12,20,03,01,0.00
2008,12,20,03,02,0.00
2008,12,20,03,03,0.00
2008,12,20,03,04,0.00
2008,12,20,03,05,0.00
2008,12,20,03,06,0.00
2008,12,20,03,07,0.00
2008,12,20,03,08,0.00
2008,12,20,03,09,0.00
2008,12,20,03,10,0.00
2008,12,20,03,11,0.00
2008,12,20,03,12,0.00
2008,12,20,03,13,0.00
2008,12,20,03,14,0.00
2008,12,20,03,15,0.00
2008,12,20,03,16,0.00
2008,12,20,03,17,0.00
2008,12,20,03,18,0.00
2008,12,20,03,19,0.00
2008,12,20,03,20,0.00
2008,12,20,03,21,0.00
2008,12,20,03,22,0.00
2008,12,20,03,23,0.00
2008,12,20,03,24,0.00
2008,12,20,03,25,0.00
2008,12,20,03,26,0.00
2008,12,20,03,27,0.00
2008,12,20,03,28,0.00
2008,12,20,03,29,0.00
2008,12,20,03,30,0.00
2008,12,20,03,31,0.00
2008,12,20,03,32,0.00
2008,12,20,03,33,0.00
2008,12,20,03,34,0.00
2008,12,20,03,35,0.00
2008,12,20,03,36,0.00
2008,12,20,03,37,0.00
2008,12,20,03,38,0.00
2008,12,20,03,39,0.00
2008,12,20,03,40,0.00
2008,12,20,03,41,0.00
2008,12,20,03,42,0.00
2008,12,20,03,43,0.00
2008,12,20,03,44,0.00
2008,12,20,03,45,0.00
2008,12,20,03,46,0.00
2008,12,20,03,47,0.00
2008,12,20,03,48,0.00
2008,12,20,03,49,0.00
2008,12,20,03,50,0.00
2008,12,20,03,51,0.00
2008,12,20,03,52,0.00
2008,12,20,03,53,0.00
2008,12,20,03,54,0.00
2008,12,20,03,55,0.00
2008,12,20,03,56,0.00
2008,12,20,03,57,0.00
2008,12,20,03,58,0.00
2008,12,20,03,59,0.00
2008,12,20,04,00,0.00
2008,12,20,04,01,0.00
2008,12,20,04,02,0.00
2008,12,20,04,03,0.00
2008,12,20,04,04,0.00
2008,12,20,04,05,0.00
2008,12,20,04,06,0.00
2008,12,20,04,07,0.00
2008,12,20,04,08,0.00
2008,12,20,04,09,0.00
2008,12,20,04,10,0.00
2008,12,20,04,11,0.00
2008,12,20,04,12,0.00
2008,12,20,04,13,0.00
2008,12,20,04,14,0.00
2008,12,20,04,15,0.00
2008,12,20,04,16,0.00
2008,12,20,04,17,0.00
2008,12,20,04,18,0.00
2008,12,20,04,19,0.00
2008,12,20,04,20,0.00
2008,12,20,04,21,0.00
2008,12,20,04,22,0.00
2008,12,20,04,23,0.00
2008,12,20,04,24,0.00
2008,12,20,04,25,0.00
2008,12,20,04,26,0.00
2008,12,20,04,27,0.00
2008,12,20,04,28,0.00
2008,12,20,04,29,0.00
2008,12,20,04,30,0.00
2008,12,20,04,31,0.00
2008,12,20,04,32,0.00
2008,12,20,04,33,0.00
2008,12,20,04,34,0.00
2008,12,20,04,35,0.00
2008,12,20,04,36,0.00
2008,12,20,04,37,0.00
2008,12,20,04,38,0.00
2008,12,20,04,39,0.00
2008,12,20,04,40,0.00
2008,12,20,04,41,0.00
2008,12,20,04,42,0.00
2008,12,20,04,43,0.00
2008,12,20,04,44,0.00
2008,12,20,04,45,0.00
2008,12,20,04,46,0.00
2008,12,20,04,47,0.00
2008,12,20,04,48,0.00
2008,12,20,04,49,0.00
2008,12,20,04,50,0.00
2008,12,20,04,51,0.00
2008,12,20,04,52,0.00
2008,12,20,04,53,0.00
2008,12,20,04,54,0.00
2008,12,20,04,55,0.00
2008,12,20,04,56,0.00
2008,12,20,04,57,0.00
2008,12,20,04,58,0.00
2008,12,20,04,59,0.00
2008,12,20,05,00,0.00
2008,12,20,05,01,0.00
2008,12,20,05,02,0.00
2008,12,20,05,03,0.00
2008,12,20,05,04,0.00
2008,12,20,05,05,0.00
2008,12,20,05,06,0.00
2008,12,20,05,07,0.00
2008,12,20,05,08,0.00
2008,12,20,05,09,0.00
2008,12,20,05,10,0.00
2008,12,20,05,11,0.00
2008,12,20,05,12,0.00
2008,12,20,05,13,0.00
2008,12,20,05,14,0.00
2008,12,20,05,15,0.00
2008,12,20,05,16,0.00
2008,12,20,05,17,0.00
2008,12,20,05,18,0.00
2008,12,20,05,19,0.00
2008,12,20,05,20,0.00
2008,12,20,05,21,0.00
2008,12,20,05,22,0.00
2008,12,20,05,23,0.00
2008,12,20,05,24,0.00
2008,12,20,05,25,0.00
2008,12,20,05,26,0.00
2008,12,20,05,27,0.00
2008,12,20,05,28,0.00
2008,12,20,05,29,0.00
2008,12,20,05,30,0.00
2008,12,20,05,31,0.00
2008,12,20,05,32,0.00
2008,12,20,05,33,0.00
2008,12,20,05,34,0.00
2008,12,20,05,35,0.00
2008,12,20,05,36,0.00
2008,12,20,05,37,0.00
2008,12,20,05,38,0.00
2008,12,20,05,39,0.00
2008,12,20,05,40,0.00
2008,12,20,05,41,0.00
2008,12,20,05,42,0.00
2008,12,20,05,43,0.00
2008,12,20,05,44,0.00
2008,12,20,05,45,0.00
2008,12,20,05,46,0.00
2008,12,20,05,47,0.00
2008,12,20,05,48,0.00
2008,12,20,05,49,0.00
2008,12,20,05,50,0.00
2008,12,20,05,51,0.00
2008,12,20,05,52,0.00
2008,12,20,05,53,0.00
2008,12,20,05,54,0.00
2008,12,20,05,55,0.00
2008,12,20,05,56,0.00
2008,12,20,05,57,0.00
2008,12,20,05,58,0.00
2008,12,20,05,59,0.00
2008,12,20,06,00,0.00
2008,12,20,06,01,0.00
2008,12,20,06,02,0.00
2008,12,20,06,03,0.00
2008,12,20,06,04,0.00
2008,12,20,06,05,0.00
2008,12,20,06,06,0.00
2008,12,20,06,07,0.00
2008,12,20,06,08,0.00
2008,12,20,06,09,0.00
2008,12,20,06,10,0.00
2008,12,20,06,11,0.00
2008,12,20,06,12,0.00
2008,12,20,06,13,0.00
2008,12,20,06,14,0.00
2008,12,20,06,15,0.00
2008,12,20,06,16,0.00
2008,12,20,06,17,0.00
2008,12,20,06,18,0.00
2008,12,20,06,19,0.00
2008,12,20,06,20,0.00
2008,12,20,06,21,0.00
2008,12,20,06,22,0.00
2008,12,20,06,23,0.00
2008,12,20,06,24,0.00
2008,12,20,06,25,0.00
2008,12,20,06,26,0.00
2008,12,20,06,27,0.00
2008,12,20,06,28,0.00
2008,12,20,06,29,0.00
2008,12,20,06,30,0.00
2008,12,20,06,31,0.00
2008,12,20,06,32,0.00
2008,12,20,06,33,0.00
2008,12,20,06,34,0.00
2008,12,20,06,35,0.00
2008,12,20,06,36,0.00
2008,12,20,06,37,0.00
2008,12,20,06,38,0.00
2008,12,20,06,39,0.00
2008,12,20,06,40,0.00
2008,12,20,06,41,0.00
2008,12,20,06,42,0.00
2008,12,20,06,43,0.00
2008,12,20,06,44,0.00
2008,12,20,06,45,0.00
2008,12,20,06,46,0.00
2008,12,20,06,47,0.00
2008,12,20,06,48,0.00
2008,12,20,06,49,0.00
2008,12,20,06,50,0.00
2008,12,20,06,51,0.00
2008,12,20,06,52,0.00
2008,12,20,06,53,0.00
2008,12,20,06,54,0.00
2008,12,20,06,55,0.00
2008,12,20,06,56,0.00
2008,12,20,06,57,0.00
2008,12,20,06,58,0.00
2008,12,20,06,59,0.00
2008,12,20,07,00,0.00
2008,12,20,07,01,0.00
2008,12,20,07,02,0.00
2008,12,20,07,03,0.00
2008,12,20,07,04,0.00
2008,12,20,07,05,0.00
2008,12,20,07,06,0.00
2008,12,20,07,07,0.00
2008,12,20,07,08,0.00
2008,12,20,07,09,0.00
2008,12,20,07,10,0.00
2008,12,20,07,11,0.00
2008,12,20,07,12,0.00
2008,12,20,07,13,0.00
2008,12,20,07,14,0.00
2008,12,20,07,15,0.00
2008,12,20,07,16,0.00
2008,12,20,07,17,0.00
2008,12,20,07,18,0.00
2008,12,20,07,19,0.00
2008,12,20,07,20,0.00
2008,12,20,07,21,0.00
2008,12,20,07,22,0.00
2008,12,20,07,23,0.00
2008,12,20,07,24,0.00
2008,12,20,07,25,0.00
2008,12,20,07,26,0.00
2008,12,20,07,27,0.00
2008,12,20,07,28,0.00
2008,12,20,07,29,0.00
2008,12,20,07,30,0.00
2008,12,20,07,31,0.00
2008,12,20,07,32,0.00
2008,12,20,07,33,0.00
2008,12,20,07,34,0.00
2008,12,20,07,35,0.00
2008,12,20,07,36,0.00
2008,12,20,07,37,0.00
2008,12,20,07,38,0.00
2008,12,20,07,39,0.00
2008,12,20,07,40,0.00
2008,12,20,07,41,0.00
2008,12,20,07,42,0.00
2008,12,20,07,43,0.00
2008,12,20,07,44,0.00
2008,12,20,07,45,0.00
2008,12,20,07,46,0.00
2008,12,20,07,47,0.00
2008,12,20,07,48,0.00
2008,12,20,07,49,0.00
2008,12,20,07,50,0.00
2008,12,20,07,51,0.00
2008,12,20,07,52,0.00
2008,12,20,07,53,0.00
2008,12,20,07,54,0.00
2008,12,20,07,55,0.00
2008,12,20,07,56,0.00
2008,12,20,07,57,0.00
2008,12,20,07,58,0.00
2008,12,20,07,59,0.00
2008,12,20,08,00,0.00
2008,12,20,08,01,0.00
2008,12,20,08,02,0.00
2008,12,20,08,03,0.00
2008,12,20,08,04,0.00
2008,12,20,08,05,0.00
2008,12,20,08,06,0.00
2008,12,20,08,07,0.00
2008,12,20,08,08,0.00
2008,12,20,08,09,0.00
2008,12,20,08,10,0.00
2008,12,20,08,11,0.00
2008,12,20,08,12,0.00
2008,12,20,08,13,0.00
2008,12,20,08,14,0.00
2008,12,20,08,15,0.00
2008,12,20,08,16,0.00
2008,12,20,08,17,0.00
2008,12,20,08,18,0.00
2008,12,20,08,19,0.00
2008,12,20,08,20,0.00
2008,12,20,08,21,0.00
2008,12,20,08,22,0.00
2008,12,20,08,23,0.00
2008,12,20,08,24,0.00
2008,12,20,08,25,0.00
2008,12,20,08,26,0.00
2008,12,20,08,27,0.00
2008,12,20,08,28,0.00
2008,12,20,08,29,0.00
2008,12,20,08,30,0.00
2008,12,20,08,31,0.00
2008,12,20,08,32,0.00
2008,12,20,08,33,0.00
2008,12,20,08,34,0.60
2008,12,20,08,35,5.00
2008,12,20,08,36,5.00
2008,12,20,08,37,5.00
2008,12,20,08,38,5.00
2008,12,20,08,39,5.00
2008,12,20,08,40,5.00
2008,12,20,08,41,5.00
2008,12,20,08,42,5.00
2008,12,20,08,43,5.00
2008,12,20,08,44,5.00
2008,12,20,08,45,5.00
2008,12,20,08,46,5.40
2008,12,20,08,47,7.00
2008,12,20,08,48,7.00
2008,12,20,08,49,7.00
2008,12,20,08,50,7.00
2008,12,20,08,51,7.00
2008,12,20,08,52,7.00
2008,12,20,08,53,7.00
2008,12,20,08,54,7.00
2008,12,20,08,55,7.00
2008,12,20,08,56,7.00
2008,12,20,08,57,7.00
2008,12,20,08,58,7.00
2008,12,20,08,59,7.70
2008,12,20,09,00,9.00
2008,12,20,09,01,10.10
2008,12,20,09,02,11.00
2008,12,20,09,03,11.00
2008,12,20,09,04,11.00
2008,12,20,09,05,11.90
2008,12,20,09,06,12.00
2008,12,20,09,07,12.00
2008,12,20,09,08,12.00
2008,12,20,09,09,12.00
2008,12,20,09,10,12.00
2008,12,20,09,11,12.00
2008,12,20,09,12,12.00
2008,12,20,09,13,12.00
2008,12,20,09,14,12.00
2008,12,20,09,15,12.00
2008,12,20,09,16,12.00
2008,12,20,09,17,12.00
2008,12,20,09,18,12.00
2008,12,20,09,19,12.00
2008,12,20,09,20,12.60
2008,12,20,09,21,14.00
2008,12,20,09,22,14.00
2008,12,20,09,23,14.00
2008,12,20,09,24,14.00
2008,12,20,09,25,14.00
2008,12,20,09,26,14.00
2008,12,20,09,27,14.00
2008,12,20,09,28,14.00
2008,12,20,09,29,14.00
2008,12,20,09,30,14.00
2008,12,20,09,31,14.00
2008,12,20,09,32,14.00
2008,12,20,09,33,14.00
2008,12,20,09,34,14.00
2008,12,20,09,35,14.00
2008,12,20,09,36,14.00
2008,12,20,09,37,14.00
2008,12,20,09,38,15.90
2008,12,20,09,39,16.00
2008,12,20,09,40,16.00
2008,12,20,09,41,16.00
2008,12,20,09,42,16.00
2008,12,20,09,43,16.00
2008,12,20,09,44,16.00
2008,12,20,09,45,16.00
2008,12,20,09,46,16.00
2008,12,20,09,47,16.00
2008,12,20,09,48,16.00
2008,12,20,09,49,17.90
2008,12,20,09,50,18.00
2008,12,20,09,51,18.00
2008,12,20,09,52,18.00
2008,12,20,09,53,18.20
2008,12,20,09,54,19.00
2008,12,20,09,55,19.00
2008,12,20,09,56,19.00
2008,12,20,09,57,19.00
2008,12,20,09,58,20.40
2008,12,20,09,59,21.00
2008,12,20,10,00,21.00
2008,12,20,10,01,21.00
2008,12,20,10,02,21.00
2008,12,20,10,03,21.00
2008,12,20,10,04,21.00
2008,12,20,10,05,21.00
2008,12,20,10,06,21.00
2008,12,20,10,07,21.00
2008,12,20,10,08,21.00
2008,12,20,10,09,21.00
2008,12,20,10,10,21.00
2008,12,20,10,11,21.00
2008,12,20,10,12,21.00
2008,12,20,10,13,21.00
2008,12,20,10,14,21.00
2008,12,20,10,15,21.00
2008,12,20,10,16,21.00
2008,12,20,10,17,21.00
2008,12,20,10,18,21.00
2008,12,20,10,19,22.30
2008,12,20,10,20,23.00
2008,12,20,10,21,23.00
2008,12,20,10,22,23.00
2008,12,20,10,23,23.00
2008,12,20,10,24,23.00
2008,12,20,10,25,23.00
2008,12,20,10,26,23.00
2008,12,20,10,27,23.00
2008,12,20,10,28,23.00
2008,12,20,10,29,23.00
2008,12,20,10,30,23.00
2008,12,20,10,31,23.00
2008,12,20,10,32,23.00
2008,12,20,10,33,23.00
2008,12,20,10,34,23.00
2008,12,20,10,35,23.10
2008,12,20,10,36,25.00
2008,12,20,10,37,25.00
2008,12,20,10,38,25.00
2008,12,20,10,39,25.00
2008,12,20,10,40,25.00
2008,12,20,10,41,25.00
2008,12,20,10,42,25.00
2008,12,20,10,43,25.00
2008,12,20,10,44,25.00
2008,12,20,10,45,25.00
2008,12,20,10,46,25.00
2008,12,20,10,47,25.00
2008,12,20,10,48,25.00
2008,12,20,10,49,25.00
2008,12,20,10,50,25.00
2008,12,20,10,51,25.00
2008,12,20,10,52,25.00
2008,12,20,10,53,25.00
2008,12,20,10,54,25.00
2008,12,20,10,55,25.00
2008,12,20,10,56,25.00
2008,12,20,10,57,25.00
2008,12,20,10,58,25.00
2008,12,20,10,59,25.00
2008,12,20,11,00,25.00
2008,12,20,11,01,25.40
2008,12,20,11,02,26.00
2008,12,20,11,03,26.00
2008,12,20,11,04,26.00
2008,12,20,11,05,26.00
2008,12,20,11,06,26.00
2008,12,20,11,07,26.00
2008,12,20,11,08,26.00
2008,12,20,11,09,26.00
2008,12,20,11,10,26.00
2008,12,20,11,11,26.00
2008,12,20,11,12,26.00
2008,12,20,11,13,26.00
2008,12,20,11,14,26.00
2008,12,20,11,15,26.00
2008,12,20,11,16,26.00
2008,12,20,11,17,26.00
2008,12,20,11,18,26.00
2008,12,20,11,19,26.00
2008,12,20,11,20,26.00
2008,12,20,11,21,26.00
2008,12,20,11,22,26.00
2008,12,20,11,23,26.00
2008,12,20,11,24,26.00
2008,12,20,11,25,26.00
2008,12,20,11,26,26.00
2008,12,20,11,27,26.00
2008,12,20,11,28,26.00
2008,12,20,11,29,26.00
2008,12,20,11,30,26.00
2008,12,20,11,31,25.80
2008,12,20,11,32,25.00
2008,12,20,11,33,25.00
2008,12,20,11,34,25.00
2008,12,20,11,35,25.00
2008,12,20,11,36,25.00
2008,12,20,11,37,25.00
2008,12,20,11,38,25.00
2008,12,20,11,39,25.90
2008,12,20,11,40,26.00
2008,12,20,11,41,26.00
2008,12,20,11,42,26.00
2008,12,20,11,43,26.00
2008,12,20,11,44,26.00
2008,12,20,11,45,26.00
2008,12,20,11,46,26.00
2008,12,20,11,47,26.00
2008,12,20,11,48,26.00
2008,12,20,11,49,27.70
2008,12,20,11,50,28.00
2008,12,20,11,51,28.00
2008,12,20,11,52,28.10
2008,12,20,11,53,30.00
2008,12,20,11,54,30.00
2008,12,20,11,55,30.00
2008,12,20,11,56,30.00
2008,12,20,11,57,31.10
2008,12,20,11,58,32.00
2008,12,20,11,59,32.00
2008,12,20,12,00,32.00
2008,12,20,12,01,32.00
2008,12,20,12,02,32.00
2008,12,20,12,03,32.00
2008,12,20,12,04,33.00
2008,12,20,12,05,33.00
2008,12,20,12,06,33.00
2008,12,20,12,07,33.00
2008,12,20,12,08,33.00
2008,12,20,12,09,33.00
2008,12,20,12,10,32.30
2008,12,20,12,11,32.00
2008,12,20,12,12,32.00
2008,12,20,12,13,32.00
2008,12,20,12,14,32.00
2008,12,20,12,15,32.00
2008,12,20,12,16,32.00
2008,12,20,12,17,31.20
2008,12,20,12,18,30.00
2008,12,20,12,19,30.00
2008,12,20,12,20,30.00
2008,12,20,12,21,30.00
2008,12,20,12,22,30.00
2008,12,20,12,23,30.00
2008,12,20,12,24,30.00
2008,12,20,12,25,30.00
2008,12,20,12,26,30.00
2008,12,20,12,27,30.00
2008,12,20,12,28,30.00
2008,12,20,12,29,30.00
2008,12,20,12,30,30.00
2008,12,20,12,31,30.00
2008,12,20,12,32,30.00
2008,12,20,12,33,30.00
2008,12,20,12,34,31.60
2008,12,20,12,35,32.00
2008,12,20,12,36,32.00
2008,12,20,12,37,32.00
2008,12,20,12,38,32.00
2008,12,20,12,39,32.00
2008,12,20,12,40,32.00
2008,12,20,12,41,32.00
2008,12,20,12,42,32.00
2008,12,20,12,43,32.00
2008,12,20,12,44,32.00
2008,12,20,12,45,32.00
2008,12,20,12,46,32.00
2008,12,20,12,47,32.00
2008,12,20,12,48,32.00
2008,12,20,12,49,32.00
2008,12,20,12,50,32.00
2008,12,20,12,51,32.00
2008,12,20,12,52,32.00
2008,12,20,12,53,32.00
2008,12,20,12,54,32.00
2008,12,20,12,55,32.00
2008,12,20,12,56,32.00
2008,12,20,12,57,32.00
2008,12,20,12,58,30.00
2008,12,20,12,59,29.70
2008,12,20,13,00,28.00
2008,12,20,13,01,27.30
2008,12,20,13,02,26.00
2008,12,20,13,03,26.00
2008,12,20,13,04,25.30
2008,12,20,13,05,25.00
2008,12,20,13,06,25.00
2008,12,20,13,07,25.00
2008,12,20,13,08,25.00
2008,12,20,13,09,25.00
2008,12,20,13,10,25.00
2008,12,20,13,11,25.00
2008,12,20,13,12,25.00
2008,12,20,13,13,25.00
2008,12,20,13,14,25.00
2008,12,20,13,15,25.00
2008,12,20,13,16,25.00
2008,12,20,13,17,25.00
2008,12,20,13,18,25.80
2008,12,20,13,19,26.00
2008,12,20,13,20,26.10
2008,12,20,13,21,28.00
2008,12,20,13,22,28.00
2008,12,20,13,23,28.00
2008,12,20,13,24,27.10
2008,12,20,13,25,26.00
2008,12,20,13,26,26.00
2008,12,20,13,27,25.20
2008,12,20,13,28,25.00
2008,12,20,13,29,23.40
2008,12,20,13,30,23.00
2008,12,20,13,31,21.10
2008,12,20,13,32,21.00
2008,12,20,13,33,21.00
2008,12,20,13,34,21.00
2008,12,20,13,35,20.10
2008,12,20,13,36,19.00
2008,12,20,13,37,19.00
2008,12,20,13,38,19.00
2008,12,20,13,39,19.00
2008,12,20,13,40,18.10
2008,12,20,13,41,18.00
2008,12,20,13,42,18.00
2008,12,20,13,43,18.00
2008,12,20,13,44,18.00
2008,12,20,13,45,18.00
2008,12,20,13,46,18.00
2008,12,20,13,47,18.00
2008,12,20,13,48,16.70
2008,12,20,13,49,16.00
2008,12,20,13,50,16.00
2008,12,20,13,51,16.00
2008,12,20,13,52,16.00
2008,12,20,13,53,16.00
2008,12,20,13,54,16.00
2008,12,20,13,55,16.00
2008,12,20,13,56,16.00
2008,12,20,13,57,16.00
2008,12,20,13,58,16.00
2008,12,20,13,59,14.70
2008,12,20,14,00,14.00
2008,12,20,14,01,14.00
2008,12,20,14,02,14.00
2008,12,20,14,03,12.00
2008,12,20,14,04,12.00
2008,12,20,14,05,12.00
2008,12,20,14,06,12.00
2008,12,20,14,07,12.00
2008,12,20,14,08,12.00
2008,12,20,14,09,12.00
2008,12,20,14,10,12.00
2008,12,20,14,11,12.00
2008,12,20,14,12,11.20
2008,12,20,14,13,11.00
2008,12,20,14,14,11.00
2008,12,20,14,15,11.00
2008,12,20,14,16,11.00
2008,12,20,14,17,11.00
2008,12,20,14,18,11.00
2008,12,20,14,19,11.00
2008,12,20,14,20,11.00
2008,12,20,14,21,11.00
2008,12,20,14,22,11.00
2008,12,20,14,23,11.00
2008,12,20,14,24,11.00
2008,12,20,14,25,11.00
2008,12,20,14,26,11.00
2008,12,20,14,27,11.00
2008,12,20,14,28,11.00
2008,12,20,14,29,11.00
2008,12,20,14,30,11.00
2008,12,20,14,31,11.50
2008,12,20,14,32,12.00
2008,12,20,14,33,12.00
2008,12,20,14,34,12.00
2008,12,20,14,35,13.90
2008,12,20,14,36,14.00
2008,12,20,14,37,14.20
2008,12,20,14,38,16.00
2008,12,20,14,39,16.00
2008,12,20,14,40,16.00
2008,12,20,14,41,16.00
2008,12,20,14,42,16.00
2008,12,20,14,43,16.00
2008,12,20,14,44,16.00
2008,12,20,14,45,16.00
2008,12,20,14,46,16.00
2008,12,20,14,47,16.00
2008,12,20,14,48,14.10
2008,12,20,14,49,13.70
2008,12,20,14,50,12.00
2008,12,20,14,51,12.00
2008,12,20,14,52,12.00
2008,12,20,14,53,12.00
2008,12,20,14,54,12.00
2008,12,20,14,55,12.00
2008,12,20,14,56,12.00
2008,12,20,14,57,13.90
2008,12,20,14,58,14.00
2008,12,20,14,59,14.00
2008,12,20,15,00,14.00
2008,12,20,15,01,14.00
2008,12,20,15,02,14.00
2008,12,20,15,03,14.00
2008,12,20,15,04,14.00
2008,12,20,15,05,14.00
2008,12,20,15,06,14.00
2008,12,20,15,07,14.00
2008,12,20,15,08,14.00
2008,12,20,15,09,14.00
2008,12,20,15,10,12.10
2008,12,20,15,11,11.80
2008,12,20,15,12,11.00
2008,12,20,15,13,10.20
2008,12,20,15,14,9.00
2008,12,20,15,15,9.00
2008,12,20,15,16,9.00
2008,12,20,15,17,9.00
2008,12,20,15,18,9.00
2008,12,20,15,19,9.00
2008,12,20,15,20,9.00
2008,12,20,15,21,9.00
2008,12,20,15,22,9.00
2008,12,20,15,23,9.00
2008,12,20,15,24,9.00
2008,12,20,15,25,9.90
2008,12,20,15,26,11.00
2008,12,20,15,27,11.00
2008,12,20,15,28,11.00
2008,12,20,15,29,9.30
2008,12,20,15,30,9.00
2008,12,20,15,31,9.00
2008,12,20,15,32,9.20
2008,12,20,15,33,11.00
2008,12,20,15,34,11.00
2008,12,20,15,35,11.00
2008,12,20,15,36,11.00
2008,12,20,15,37,11.00
2008,12,20,15,38,11.00
2008,12,20,15,39,11.00
2008,12,20,15,40,11.00
2008,12,20,15,41,11.00
2008,12,20,15,42,11.00
2008,12,20,15,43,9.10
2008,12,20,15,44,9.00
2008,12,20,15,45,8.50
2008,12,20,15,46,7.00
2008,12,20,15,47,6.10
2008,12,20,15,48,5.00
2008,12,20,15,49,5.00
2008,12,20,15,50,5.00
2008,12,20,15,51,5.00
2008,12,20,15,52,0.60
2008,12,20,15,53,0.00
2008,12,20,15,54,0.00
2008,12,20,15,55,0.00
2008,12,20,15,56,0.00
2008,12,20,15,57,0.00
2008,12,20,15,58,0.00
2008,12,20,15,59,0.00
2008,12,20,16,00,0.00
2008,12,20,16,01,0.00
2008,12,20,16,02,0.00
2008,12,20,16,03,0.00
2008,12,20,16,04,0.00
2008,12,20,16,05,0.00
2008,12,20,16,06,0.00
2008,12,20,16,07,0.00
2008,12,20,16,08,0.00
2008,12,20,16,09,0.00
2008,12,20,16,10,0.00
2008,12,20,16,11,0.00
2008,12,20,16,12,0.00
2008,12,20,16,13,0.00
2008,12,20,16,14,0.00
2008,12,20,16,15,0.00
2008,12,20,16,16,0.00
2008,12,20,16,17,0.00
2008,12,20,16,18,0.00
2008,12,20,16,19,0.00
2008,12,20,16,20,0.00
2008,12,20,16,21,0.00
2008,12,20,16,22,0.00
2008,12,20,16,23,0.00
2008,12,20,16,24,0.00
2008,12,20,16,25,0.00
2008,12,20,16,26,0.00
2008,12,20,16,27,0.00
2008,12,20,16,28,0.00
2008,12,20,16,29,0.00
2008,12,20,16,30,0.00
2008,12,20,16,31,0.00
2008,12,20,16,32,0.00
2008,12,20,16,33,0.00
2008,12,20,16,34,0.00
2008,12,20,16,35,0.00
2008,12,20,16,36,0.00
2008,12,20,16,37,0.00
2008,12,20,16,38,0.00
2008,12,20,16,39,0.00
2008,12,20,16,40,0.00
2008,12,20,16,41,0.00
2008,12,20,16,42,0.00
2008,12,20,16,46,0.00
2008,12,20,16,47,0.00
2008,12,20,16,48,0.00
2008,12,20,16,49,0.00
2008,12,20,16,50,0.00
2008,12,20,16,51,0.00
2008,12,20,16,52,0.00
2008,12,20,16,53,0.00
2008,12,20,16,54,0.00
2008,12,20,16,55,0.00
2008,12,20,17,02,0.00
2008,12,20,17,03,0.00
2008,12,20,17,06,0.00
2008,12,20,17,07,0.00
2008,12,20,17,08,0.00
2008,12,20,21,28,0.00
2008,12,20,21,29,0.00
2008,12,20,21,30,0.00
2008,12,20,21,31,0.00
2008,12,20,21,32,0.00
2008,12,20,21,33,0.00
2008,12,20,21,34,0.00
2008,12,20,21,35,0.00
2008,12,20,21,36,0.00
2008,12,20,21,37,0.00
2008,12,20,21,38,0.00
2008,12,20,21,39,0.00
2008,12,20,21,40,0.00
2008,12,20,21,41,0.00
2008,12,20,21,42,0.00
2008,12,20,21,43,0.00
2008,12,20,21,44,0.00
2008,12,20,21,45,0.00
2008,12,20,21,46,0.00
2008,12,20,21,47,0.00
2008,12,20,21,48,0.00
2008,12,20,21,49,0.00
2008,12,20,21,50,0.00
2008,12,20,21,51,0.00
2008,12,20,21,52,0.00
2008,12,20,21,53,0.00
2008,12,20,21,54,0.00
2008,12,20,21,55,0.00
2008,12,20,21,56,0.00
2008,12,20,21,57,0.00
2008,12,20,21,58,0.00
2008,12,20,21,59,0.00
2008,12,20,22,00,0.00
2008,12,20,22,01,0.00
2008,12,20,22,02,0.00
2008,12,20,22,03,0.00
2008,12,20,22,04,0.00
2008,12,20,22,05,0.00
2008,12,20,22,06,0.00
2008,12,20,22,07,0.00
2008,12,20,22,08,0.00
2008,12,20,22,09,0.00
2008,12,20,22,10,0.00
2008,12,20,22,11,0.00
2008,12,20,22,12,0.00
2008,12,20,22,13,0.00
2008,12,20,22,14,0.00
2008,12,20,22,15,0.00
2008,12,20,22,16,0.00
2008,12,20,22,17,0.00
2008,12,20,22,18,0.00
2008,12,20,22,19,0.00